Theta_e
302 300 299 296 295 294 294 294 294 294 294 293 293 293 293 294 294 295 297 304 308 312 315 317 318 319 319 320 323 323 321 318 320 318 319 321 322 321 321 322 325 327 328
300 299 295 293 293 293 293 293 293 293 293 293 292 292 292 293 293 294 296 303 307 311 314 316 317 318 319 319 316 315 317 317 314 313 316 315 316 317 318 319 321 322 323
297 297 294 292 292 292 292 292 291 291 291 291 291 291 292 292 293 293 294 297 303 310 312 314 315 319 319 316 312 313 317 314 311 311 314 312 313 314 314 315 316 316 317
296 294 293 292 292 291 291 291 290 290 291 291 290 290 291 292 292 292 293 296 298 299 305 308 308 308 308 308 310 313 313 310 310 312 310 311 313 313 314 314 314 314 315
295 294 293 292 291 290 290 290 289 290 289 289 289 289 290 291 291 290 293 293 294 293 293 296 297 299 303 303 307 307 308 309 309 309 309 310 310 310 310 311 312 312 313
294 293 292 291 290 289 289 289 289 288 289 289 287 288 289 290 291 291 291 290 291 291 290 291 292 294 298 302 304 306 307 308 307 306 308 307 307 308 309 309 309 310 312
294 293 292 290 290 289 289 289 288 288 287 287 288 287 288 288 288 289 290 289 289 289 289 290 290 291 293 299 302 305 306 306 305 305 304 304 304 305 306 307 308 309 309
293 292 291 290 289 288 288 288 288 287 287 286 288 288 285 287 288 288 288 287 287 288 288 288 288 289 291 294 299 301 302 302 301 301 301 301 302 303 304 305 306 307 308
293 292 291 290 289 289 288 288 288 288 286 285 285 290 284 287 285 286 287 287 287 287 287 287 287 288 289 291 294 295 295 296 297 297 298 298 300 301 302 303 304 305 306
292 292 291 290 289 288 288 287 287 288 287 286 285 285 286 287 286 283 285 286 286 286 286 287 287 287 288 290 292 291 290 292 292 293 294 295 297 298 300 301 302 303 304
291 290 290 289 288 288 288 287 286 286 287 287 286 284 284 284 284 285 284 283 285 285 286 286 286 287 287 288 290 289 288 289 290 291 291 292 294 296 297 299 300 301 302
289 289 289 288 288 288 287 286 287 287 286 286 286 285 285 284 283 283 283 283 284 284 285 285 285 286 287 289 286 285 286 287 288 289 290 291 292 293 295 296 298 299 300
288 287 288 287 287 287 286 286 286 286 285 285 286 285 285 285 284 283 283 281 282 282 283 285 285 286 286 286 284 283 283 285 286 287 289 289 290 291 292 294 295 296 297
289 289 287 287 287 286 285 285 285 285 285 285 285 284 284 284 285 284 284 282 280 280 281 281 284 285 285 284 282 282 282 282 284 287 287 288 289 290 291 293 294 295 295
289 288 287 286 286 285 285 285 284 284 284 285 284 284 284 283 284 284 284 284 285 281 279 280 281 284 283 282 281 282 281 280 283 285 285 286 288 289 290 292 292 293 294
288 287 286 286 285 285 284 284 284 283 283 283 283 283 283 283 283 283 283 283 282 284 282 280 280 282 282 280 280 281 280 280 281 282 284 285 287 288 289 290 290 291 292
287 286 286 285 285 284 284 283 283 283 282 282 282 282 282 282 282 281 282 281 280 280 281 277 279 279 278 278 279 280 280 280 281 281 283 285 287 287 287 288 288 289 290
286 286 285 285 284 283 283 283 282 282 282 281 281 280 280 279 280 280 280 280 280 279 279 278 276 276 277 278 278 278 278 279 280 281 283 285 285 285 286 286 287 287 288
285 285 284 284 283 283 283 283 283 282 281 281 281 280 280 279 279 279 279 279 279 278 278 276 276 276 276 277 277 278 278 279 280 281 282 282 283 284 285 285 286 286 285
285 284 284 284 283 283 282 282 282 282 281 281 281 280 280 279 279 278 278 278 277 276 276 275 274 274 275 276 277 277 277 279 278 279 280 281 282 282 283 284 284 283 283
284 284 283 283 283 282 282 281 281 281 280 280 280 279 280 279 281 280 278 277 276 275 275 274 273 274 275 275 275 277 276 277 278 279 279 279 280 279 280 280 280 281 282
282 283 282 282 282 282 285 286 283 281 280 280 278 278 279 278 280 282 281 280 278 274 273 274 274 273 274 276 276 276 275 275 274 280 278 277 278 277 278 279 280 281 283
282 281 282 282 282 282 286 287 286 281 280 280 279 278 277 277 278 279 282 281 280 280 278 276 274 275 276 276 277 275 275 275 275 278 275 273 277 276 278 278 280 281 282
281 281 281 282 281 282 285 287 286 282 280 279 279 278 277 276 277 278 279 279 278 278 278 277 277 277 278 278 277 278 277 275 274 274 275 271 276 275 277 277 279 280 281
280 281 282 281 281 281 285 286 286 283 279 279 278 278 278 276 278 281 278 277 277 277 281 282 281 280 280 280 280 277 273 271 269 271 274 272 273 273 275 276 277 278 280
279 280 279 280 280 280 283 285 286 284 279 278 277 277 279 277 280 281 278 278 276 276 276 278 278 279 281 279 278 276 273 269 269 268 274 271 272 272 270 274 276 275 276
Wind_Speed
7 7 6 5 5 4 4 4 4 4 4 4 4 4 4 4 4 3 2 5 6 7 8 8 9 9 10 10 15 14 14 12 16 14 15 14 14 13 15 15 15 15 15
8 7 7 6 6 6 5 4 4 4 3 4 4 4 4 3 4 4 3 4 7 7 9 10 10 9 10 15 14 11 10 16 15 13 16 15 16 16 15 16 16 17 18
11 10 8 7 6 6 7 5 5 4 4 4 5 4 4 4 4 5 4 4 3 13 14 13 12 13 14 14 10 9 13 14 12 11 15 14 14 14 13 14 16 16 17
12 10 8 8 8 7 6 6 5 4 3 3 3 3 3 4 5 6 5 4 5 6 11 15 15 14 11 8 8 10 13 11 10 15 13 13 14 14 16 16 16 17 17
12 10 8 8 9 7 7 6 3 3 4 3 4 4 4 4 5 4 7 7 7 6 5 11 11 10 10 8 9 8 10 10 12 12 12 12 14 14 13 13 14 14 14
14 11 8 9 9 7 7 6 5 3 2 4 6 5 5 4 3 3 5 5 6 6 5 5 5 6 8 9 9 10 10 11 12 11 13 13 13 13 13 14 15 14 14
15 14 9 10 9 9 10 10 5 6 3 4 5 5 4 5 4 3 3 3 5 5 5 5 4 3 4 10 10 10 12 12 13 13 13 12 12 12 13 13 13 13 13
16 15 13 11 12 8 10 10 7 5 3 6 3 3 4 2 1 2 3 3 4 3 5 5 5 5 5 4 7 13 14 14 13 12 11 11 11 12 13 13 14 14 15
14 15 16 14 14 11 11 12 10 9 6 4 5 2 4 4 4 3 5 3 2 2 2 4 5 5 5 5 6 9 13 13 12 12 12 12 12 13 13 13 14 15 16
15 15 15 14 14 10 11 11 10 8 6 6 3 2 3 2 4 4 3 4 3 2 1 2 3 4 4 4 6 9 11 12 12 11 11 12 12 13 14 15 15 15 15
12 13 14 13 13 10 11 12 11 10 6 5 4 4 2 2 2 2 4 5 3 3 2 1 2 3 4 4 4 6 11 13 12 11 11 11 12 13 13 14 15 16 17
10 13 14 14 14 13 13 12 12 12 10 5 5 5 5 5 5 4 2 2 2 3 2 2 4 4 4 5 6 6 8 12 11 11 11 12 12 13 14 14 15 16 17
10 14 16 15 12 12 12 11 11 12 11 10 11 7 4 4 4 4 3 3 3 3 2 2 4 4 5 5 3 4 8 11 11 10 11 12 12 13 14 14 15 16 17
12 14 16 14 15 15 14 13 10 10 11 10 12 9 7 7 6 5 6 6 2 3 3 3 4 5 5 4 1 4 5 9 10 12 12 12 12 13 14 15 16 16 17
9 12 15 16 16 15 16 15 12 14 13 11 10 9 7 6 7 6 5 4 5 6 7 6 5 7 6 5 2 4 6 7 11 12 11 11 12 13 14 15 17 18 18
9 11 14 16 15 16 16 16 13 12 14 11 9 12 9 7 7 6 6 5 3 3 4 3 6 5 6 3 4 4 6 9 10 10 11 11 12 12 15 16 17 18 19
11 13 15 16 17 17 17 16 15 14 17 14 12 14 13 12 9 8 7 6 6 4 4 3 3 5 7 7 5 4 4 5 5 11 11 12 13 14 13 15 16 18 19
12 13 13 14 15 17 17 20 19 17 18 17 16 15 15 10 12 11 9 11 9 9 5 7 5 6 6 4 5 5 4 4 6 11 12 13 13 14 16 17 16 17 19
12 12 14 16 16 17 18 19 19 18 19 20 18 18 17 16 15 12 12 10 9 7 6 4 4 3 2 2 2 3 5 6 7 14 14 15 15 14 17 20 21 22 21
12 12 14 16 17 17 18 18 18 18 18 17 18 18 18 20 19 18 14 14 11 10 8 7 5 4 4 4 5 5 4 4 8 8 11 14 13 15 19 19 19 22 22
11 12 13 14 15 16 14 18 18 18 18 17 16 17 18 20 26 22 14 15 15 11 10 8 7 6 5 5 7 3 5 6 10 9 6 6 7 9 9 12 17 19 19
9 10 12 14 16 13 23 29 23 19 19 18 17 16 15 18 22 29 26 26 22 18 14 9 9 9 11 8 7 8 7 5 4 6 5 10 8 8 7 6 15 20 21
9 10 13 13 16 17 26 28 30 16 18 19 18 16 14 13 18 17 25 25 24 24 19 14 12 11 11 11 10 10 9 7 7 7 8 7 6 8 5 7 16 20 21
9 11 13 14 15 14 24 27 28 18 17 19 20 20 20 19 21 19 18 16 15 16 16 11 11 9 9 9 10 8 6 3 6 8 5 5 4 7 6 8 17 16 16
11 11 11 12 14 14 23 26 24 19 15 18 17 18 19 19 27 31 19 17 15 13 18 21 16 14 15 15 13 6 4 3 2 3 2 4 4 10 7 6 4 9 15
13 10 11 11 14 14 21 25 25 14 15 13 13 16 27 21 33 35 19 18 16 14 13 11 10 13 14 7 9 7 4 4 3 3 4 4 6 6 8 3 4 10 8
Wind_Direction
175 169 164 160 160 156 161 154 147 136 121 104 85 86 77 64 68 69 64 27 58 84 93 92 88 90 85 85 70 66 68 62 50 46 43 45 46 40 31 26 26 27 21
173 178 172 173 171 172 165 164 154 144 130 127 108 96 85 73 75 86 88 69 63 70 93 94 94 93 101 79 65 62 76 68 50 40 56 40 31 28 29 29 24 24 19
181 178 175 177 178 171 158 152 148 152 159 145 118 106 101 98 102 100 100 93 60 56 65 73 78 71 77 68 56 58 72 54 38 45 50 37 32 30 26 27 26 16 13
183 180 178 182 172 166 168 166 160 151 136 115 109 90 94 103 95 81 101 100 92 79 75 69 62 63 65 63 68 66 60 48 49 50 42 37 41 38 29 23 17 9 9
182 180 184 177 169 168 172 164 158 161 166 148 124 98 97 115 120 101 109 103 95 90 83 76 77 73 70 62 66 67 67 61 56 50 44 43 38 27 20 14 14 11 4
181 182 179 171 170 170 170 172 163 159 147 141 110 90 94 113 121 120 121 110 106 89 81 87 86 69 73 80 80 82 78 71 61 51 45 34 27 19 13 11 7 358 358
181 182 179 171 174 179 180 175 157 163 160 172 132 97 80 91 84 116 131 101 90 56 59 73 63 62 55 65 76 82 71 64 53 39 31 24 17 10 5 6 1 358 357
181 177 175 179 179 174 179 180 171 149 146 188 148 117 147 163 186 120 156 144 108 109 103 84 89 88 87 77 83 71 59 43 34 31 23 14 9 6 359 355 352 350 346
188 186 181 176 179 183 186 185 184 177 160 188 224 156 149 194 149 176 210 186 153 73 90 69 88 99 109 102 90 66 50 36 24 15 7 4 1 357 352 351 347 341 341
189 190 186 182 180 182 186 187 186 188 151 166 169 188 41 92 170 172 201 218 222 240 85 66 90 101 112 111 98 80 33 19 8 4 359 359 356 351 348 346 342 341 338
193 189 189 184 185 185 189 185 183 195 194 169 159 153 135 82 64 145 165 176 204 195 175 59 135 141 135 129 105 50 19 3 355 353 351 348 348 342 342 343 342 339 335
180 191 189 187 188 189 187 184 186 195 196 198 182 174 163 165 177 159 158 162 174 155 187 192 164 158 150 146 106 39 9 350 346 344 342 339 339 340 338 337 338 335 332
194 197 186 187 189 190 187 183 187 193 193 196 187 192 171 169 146 144 143 147 165 160 173 199 173 165 160 157 117 28 350 341 338 335 331 330 336 335 331 331 330 329 327
202 191 194 197 193 188 184 182 187 196 196 200 194 192 182 178 175 167 158 148 141 220 206 157 171 177 168 172 121 342 325 329 326 322 325 325 332 330 327 325 325 323 320
201 193 193 192 190 189 190 187 192 190 189 194 197 197 192 183 184 179 167 166 157 171 208 191 182 185 178 182 250 319 322 321 312 315 312 318 321 319 319 316 317 317 317
201 196 193 196 197 194 190 191 195 195 192 191 185 186 191 184 180 178 177 172 179 163 150 162 206 189 195 211 234 278 292 289 293 290 295 307 311 313 312 313 314 316 319
200 198 197 200 199 195 192 192 200 193 198 193 187 187 189 178 183 177 175 172 175 169 176 143 186 181 208 216 214 256 262 267 275 271 291 303 306 309 305 304 311 316 316
206 204 201 205 203 201 196 196 195 193 198 196 192 185 186 176 183 178 179 182 183 181 161 183 174 193 204 223 254 268 252 267 279 279 293 305 310 309 306 302 311 315 309
216 212 207 204 203 203 204 206 203 201 200 196 193 188 187 179 184 180 182 182 177 173 177 163 200 225 225 277 302 294 295 294 285 296 311 309 295 299 304 311 316 311 308
223 217 221 219 211 202 203 205 204 203 203 206 194 191 186 188 188 182 180 179 173 168 178 185 193 215 246 261 261 289 296 278 286 276 263 259 269 286 292 299 301 297 300
237 222 222 226 226 214 202 200 200 202 205 206 204 196 192 191 194 186 176 176 171 173 172 181 193 193 194 193 214 202 245 277 273 258 238 252 276 283 285 287 278 284 294
246 235 229 225 228 231 222 209 198 196 199 203 205 200 191 190 193 190 190 183 179 172 177 172 192 202 204 198 197 213 223 231 258 216 252 280 279 266 275 267 276 285 296
272 251 244 233 233 232 229 220 207 204 199 198 198 197 188 191 191 188 194 190 195 192 182 175 183 192 199 194 195 209 211 216 243 273 287 272 246 261 266 274 282 291 299
271 257 250 239 237 239 229 224 214 209 207 203 199 193 189 186 189 180 180 186 190 195 187 186 193 198 207 182 211 210 219 227 268 267 259 263 278 282 289 283 283 287 295
281 261 252 247 243 241 236 226 212 216 210 207 200 197 194 187 187 182 179 179 186 190 198 198 190 194 214 212 212 193 213 199 248 253 278 265 300 311 307 292 276 287 304
284 272 259 248 241 244 238 231 218 213 215 206 206 195 197 187 184 184 181 178 183 183 178 190 201 201 219 222 227 234 208 192 177 248 211 322 329 346 324 287 303 300 291